Date,TemperatureHighF,TemperatureAvgF,TemperatureLowF,DewpointHighF,DewpointAvgF,DewpointLowF,HumidityHigh,HumidityAvg,HumidityLow,PressureMaxIn,PressureMinIn,WindSpeedMaxMPH,WindSpeedAvgMPH,GustSpeedMaxMPH,PrecipitationSumIn
2013-10-1,48.3,41.9,37.4,36.0,33.8,31.0,89,74,55,31.66,31.50,20,3,21,0.02
2013-10-2,48.1,40.5,34.2,33.0,28.6,26.0,77,64,45,31.77,31.53,13,4,16,0.01
2013-10-3,43.3,39.4,36.6,30.0,27.6,24.0,73,63,53,32.01,31.52,18,6,27,0.00
2013-10-4,49.3,39.7,31.4,28.0,23.9,22.0,70,54,38,32.18,32.02,11,2,15,0.00
2013-10-5,56.6,43.4,30.8,28.0,23.5,-99.9,81,50,25,32.11,31.91,13,-6,18,0.00
2013-10-6,65.8,50.3,36.5,36.0,29.3,25.0,70,47,27,31.93,31.52,11,3,16,0.00
2013-10-7,62.8,50.4,42.1,36.0,31.0,28.0,77,49,30,31.52,31.23,15,4,21,0.00
2013-10-8,46.7,41.4,36.4,34.0,30.9,28.0,81,67,52,31.55,31.38,15,3,15,0.00
2013-10-9,51.5,42.1,35.2,35.0,32.7,30.0,90,71,50,31.65,31.43,10,3,13,0.00
2013-10-10,45.5,39.6,34.3,35.0,31.2,-99.9,88,75,62,31.52,31.40,7,-9,11,0.00
2013-10-11,50.1,42.0,37.8,32.0,27.2,25.0,70,57,40,31.68,31.52,14,3,16,0.00
2013-10-12,47.2,39.0,32.9,30.0,27.2,25.0,77,63,46,31.71,31.61,7,2,10,0.00
2013-10-13,48.7,40.4,32.7,32.0,29.1,27.0,80,65,51,31.84,31.70,13,4,17,0.00
2013-10-14,47.6,41.4,37.1,31.0,28.9,26.0,71,62,49,32.00,31.84,9,3,13,0.00
2013-10-15,50.3,39.6,28.5,30.0,27.2,25.0,87,63,42,32.06,31.81,10,2,15,0.00
2013-10-16,46.4,39.1,33.7,32.0,26.3,-99.9,73,62,53,31.80,31.71,8,-8,12,0.00
2013-10-17,45.0,38.7,34.6,34.0,31.3,29.0,83,75,63,31.91,31.77,6,1,7,0.01
2013-10-18,51.5,35.0,28.7,31.0,10.0,-99.9,91,56,41,31.98,31.75,10,-145,14,0.00
2013-10-19,57.2,37.3,38.9,32.0,-2.3,-99.9,62,34,31,31.78,31.52,7,-227,14,0.00
2013-10-20,56.1,47.1,40.6,35.0,27.9,-99.9,66,51,40,31.69,31.58,11,-19,12,0.00
2013-10-21,57.1,46.9,36.1,38.0,34.5,30.0,79,63,46,31.83,31.68,13,3,17,0.00
2013-10-22,59.3,47.7,37.3,39.0,35.6,33.0,86,65,43,31.82,31.65,5,1,7,0.00
2013-10-23,59.5,45.1,37.0,35.0,27.0,-99.9,73,56,40,31.77,31.64,7,-40,8,0.00
2013-10-24,59.2,47.4,38.6,33.0,30.7,28.0,70,54,36,31.77,31.61,4,1,6,0.00
2013-10-25,59.7,41.9,38.8,35.0,14.6,-99.9,69,47,37,31.84,31.70,3,-126,7,0.00
2013-10-26,57.3,43.1,37.7,34.0,20.7,-99.9,73,51,37,31.91,31.66,6,-72,7,0.00
2013-10-27,53.0,43.4,32.9,31.0,26.3,16.0,60,52,38,31.65,31.24,16,4,22,0.00
2013-10-28,32.6,25.9,22.4,17.0,13.8,11.0,72,61,51,31.79,31.64,24,6,31,0.00
2013-10-29,38.6,23.9,19.2,19.0,-3.6,-99.9,75,50,45,31.81,31.66,14,-167,18,0.00
2013-10-30,44.4,27.1,27.7,24.0,-10.8,-99.9,70,40,45,31.71,31.59,10,-267,14,0.00
2013-10-31,41.6,38.5,35.1,34.0,25.9,-99.9,88,66,51,31.75,31.59,12,-8,15,0.00